When you browse on this site, cookies collect data to enhance your experience and personalize the content and advertising you see.
Visit our Privacy Policy to learn more. By continuing to use the site, you agree to this use of cookies and data.
  • In Portugal
  • List of Countries
  • For 7 days
  • Water Temperature
  • Satellite Maps
  • Weather Map
  • Weather Widgets
  • user-avatar
    Login

    Hourly Weather Hlyut

    Today, 27 June, Thursday

    Time Temperature Precipitation Wind Pressure Humidity
    00:00 +19°C° 0.1 mm 1 mps 657 mmHg 83%
    01:00 +19°C° 0 mm 1 mps 657 mmHg 81%
    02:00 +19°C° 0 mm 1 mps 656 mmHg 79%
    03:00 +18°C° 0 mm 1 mps 656 mmHg 77%
    04:00 +20°C° 0 mm 1 mps 657 mmHg 73%
    05:00 +21°C° 0 mm 1 mps 657 mmHg 70%
    06:00 +22°C° 0 mm 1 mps 657 mmHg 67%
    07:00 +23°C° 0 mm 1 mps 658 mmHg 65%
    08:00 +24°C° 0 mm 2 mps 658 mmHg 62%
    09:00 +25°C° 0 mm 2 mps 658 mmHg 60%
    10:00 +25°C° 0.5 mm 2 mps 658 mmHg 63%
    11:00 +25°C° 0.5 mm 2 mps 657 mmHg 67%
    12:00 +25°C° 0.5 mm 2 mps 657 mmHg 71%
    13:00 +25°C° 1.2 mm 2 mps 657 mmHg 72%
    14:00 +24°C° 1.2 mm 2 mps 656 mmHg 73%
    15:00 +24°C° 1.2 mm 1 mps 656 mmHg 75%
    16:00 +24°C° 0.6 mm 1 mps 656 mmHg 75%
    17:00 +24°C° 0.6 mm 1 mps 655 mmHg 76%
    18:00 +24°C° 0.6 mm 1 mps 655 mmHg 76%
    19:00 +22°C° 0.2 mm 1 mps 655 mmHg 79%
    20:00 +21°C° 0.2 mm 1 mps 654 mmHg 82%
    21:00 +19°C° 0.2 mm 1 mps 654 mmHg 85%
    22:00 +19°C° 0 mm 1 mps 654 mmHg 84%
    23:00 +19°C° 0 mm 1 mps 653 mmHg 84%

    Tomorrow, 28 June, Friday

    Time Temperature Precipitation Wind Pressure Humidity
    00:00 +18°C° 0 mm 1 mps 653 mmHg 84%
    01:00 +17°C° 0 mm 2 mps 653 mmHg 83%
    02:00 +17°C° 0 mm 2 mps 652 mmHg 82%
    03:00 +17°C° 0 mm 2 mps 652 mmHg 81%
    04:00 +18°C° 0 mm 2 mps 652 mmHg 79%
    05:00 +19°C° 0 mm 2 mps 653 mmHg 78%
    06:00 +20°C° 0 mm 2 mps 653 mmHg 76%
    07:00 +21°C° 0 mm 2 mps 653 mmHg 70%
    08:00 +24°C° 0 mm 2 mps 653 mmHg 64%
    09:00 +25°C° 0 mm 1 mps 653 mmHg 58%
    10:00 +26°C° 0.5 mm 2 mps 653 mmHg 59%
    11:00 +26°C° 0.5 mm 2 mps 653 mmHg 59%
    12:00 +27°C° 0.5 mm 3 mps 652 mmHg 60%
    13:00 +27°C° 1.1 mm 2 mps 652 mmHg 60%
    14:00 +27°C° 1.1 mm 2 mps 652 mmHg 60%
    15:00 +27°C° 1.1 mm 2 mps 651 mmHg 60%
    16:00 +26°C° 0.4 mm 2 mps 651 mmHg 63%
    17:00 +25°C° 0.4 mm 2 mps 650 mmHg 67%
    18:00 +25°C° 0.4 mm 1 mps 650 mmHg 70%
    19:00 +23°C° 0 mm 2 mps 650 mmHg 72%
    20:00 +21°C° 0 mm 2 mps 650 mmHg 73%
    21:00 +19°C° 0 mm 2 mps 649 mmHg 75%
    22:00 +19°C° 0 mm 2 mps 649 mmHg 74%
    23:00 +19°C° 0 mm 2 mps 649 mmHg 74%

    Day after tomorrow, 29 June, Saturday

    Time Temperature Precipitation Wind Pressure Humidity
    00:00 +19°C° 0 mm 2 mps 649 mmHg 73%
    01:00 +19°C° 0 mm 2 mps 649 mmHg 73%
    02:00 +19°C° 0 mm 2 mps 649 mmHg 74%
    03:00 +20°C° 0 mm 1 mps 649 mmHg 74%
    04:00 +21°C° 0.3 mm 1 mps 649 mmHg 76%
    05:00 +21°C° 0.3 mm 1 mps 650 mmHg 77%
    06:00 +19°C° 0.3 mm 0 mps 650 mmHg 79%
    07:00 +22°C° 0.3 mm 1 mps 650 mmHg 75%
    08:00 +24°C° 0.3 mm 2 mps 650 mmHg 72%
    09:00 +25°C° 0.3 mm 2 mps 651 mmHg 69%
    10:00 +25°C° 1.7 mm 3 mps 651 mmHg 71%
    11:00 +25°C° 1.7 mm 3 mps 651 mmHg 73%
    12:00 +25°C° 1.7 mm 3 mps 651 mmHg 75%
    13:00 +25°C° 2.1 mm 3 mps 650 mmHg 77%
    14:00 +24°C° 2.1 mm 3 mps 650 mmHg 79%
    15:00 +24°C° 2.1 mm 2 mps 650 mmHg 81%
    16:00 +24°C° 1.5 mm 2 mps 650 mmHg 82%
    17:00 +23°C° 1.5 mm 2 mps 649 mmHg 83%
    18:00 +23°C° 1.5 mm 1 mps 649 mmHg 83%
    19:00 +22°C° 1.1 mm 1 mps 649 mmHg 87%
    20:00 +21°C° 1.1 mm 1 mps 650 mmHg 91%
    21:00 +20°C° 1.1 mm 1 mps 650 mmHg 95%
    22:00 +20°C° 2.3 mm 1 mps 650 mmHg 95%
    23:00 +20°C° 2.3 mm 1 mps 650 mmHg 95%

    30 June, Sunday

    Time Temperature Precipitation Wind Pressure Humidity
    00:00 +20°C° 2.3 mm 1 mps 650 mmHg 94%
    01:00 +19°C° 0.4 mm 1 mps 650 mmHg 95%
    02:00 +19°C° 0.4 mm 1 mps 650 mmHg 95%
    03:00 +18°C° 0.4 mm 1 mps 650 mmHg 95%
    04:00 +18°C° 0.2 mm 1 mps 651 mmHg 95%
    05:00 +18°C° 0.2 mm 1 mps 651 mmHg 94%
    06:00 +17°C° 0.2 mm 2 mps 651 mmHg 94%
    07:00 +17°C° 0.5 mm 2 mps 651 mmHg 94%
    08:00 +17°C° 0.5 mm 2 mps 651 mmHg 93%
    09:00 +17°C° 0.5 mm 2 mps 652 mmHg 93%
    10:00 +17°C° 0.5 mm 2 mps 652 mmHg 92%
    11:00 +18°C° 0.5 mm 2 mps 652 mmHg 91%
    12:00 +18°C° 0.5 mm 2 mps 652 mmHg 90%
    13:00 +18°C° 0.8 mm 2 mps 652 mmHg 91%
    14:00 +18°C° 0.8 mm 2 mps 651 mmHg 92%
    15:00 +17°C° 0.8 mm 2 mps 651 mmHg 93%
    16:00 +17°C° 0.9 mm 2 mps 651 mmHg 95%
    17:00 +17°C° 0.9 mm 2 mps 651 mmHg 96%
    18:00 +17°C° 0.9 mm 2 mps 651 mmHg 97%
    19:00 +16°C° 1.7 mm 2 mps 652 mmHg 97%
    20:00 +16°C° 1.7 mm 2 mps 652 mmHg 98%
    21:00 +16°C° 1.7 mm 2 mps 652 mmHg 98%
    22:00 +16°C° 1.7 mm 2 mps 652 mmHg 98%
    23:00 +15°C° 1.7 mm 2 mps 652 mmHg 98%

    1 July, Monday

    Time Temperature Precipitation Wind Pressure Humidity
    00:00 +15°C° 1.7 mm 2 mps 653 mmHg 98%
    01:00 +15°C° 2.4 mm 2 mps 653 mmHg 98%
    02:00 +15°C° 2.4 mm 2 mps 652 mmHg 98%
    03:00 +14°C° 2.4 mm 2 mps 652 mmHg 98%
    04:00 +14°C° 3.1 mm 2 mps 653 mmHg 98%
    05:00 +14°C° 3.1 mm 2 mps 653 mmHg 98%
    06:00 +13°C° 3.1 mm 2 mps 653 mmHg 98%
    07:00 +13°C° 3.5 mm 2 mps 653 mmHg 98%
    08:00 +12°C° 3.5 mm 1 mps 653 mmHg 98%
    09:00 +11°C° 3.5 mm 1 mps 652 mmHg 98%
    10:00 +11°C° 4.4 mm 1 mps 653 mmHg 98%
    11:00 +11°C° 4.4 mm 1 mps 653 mmHg 97%
    12:00 +10°C° 4.4 mm 1 mps 653 mmHg 97%
    13:00 +11°C° 1.2 mm 1 mps 653 mmHg 95%
    14:00 +12°C° 1.2 mm 1 mps 653 mmHg 94%
    15:00 +13°C° 1.2 mm 1 mps 653 mmHg 92%
    16:00 +13°C° 0.1 mm 1 mps 653 mmHg 93%
    17:00 +13°C° 0.1 mm 1 mps 653 mmHg 94%
    18:00 +12°C° 0.1 mm 1 mps 653 mmHg 95%
    19:00 +12°C° 0.1 mm 1 mps 654 mmHg 95%
    20:00 +12°C° 0.1 mm 1 mps 654 mmHg 96%
    21:00 +11°C° 0.1 mm 1 mps 654 mmHg 96%
    22:00 +11°C° 0.1 mm 1 mps 654 mmHg 94%
    23:00 +10°C° 0.1 mm 1 mps 654 mmHg 92%

    2 July, Tuesday

    Time Temperature Precipitation Wind Pressure Humidity
    00:00 +10°C° 0.1 mm 1 mps 654 mmHg 90%
    01:00 +9°C° 0 mm 1 mps 654 mmHg 89%
    02:00 +9°C° 0 mm 1 mps 654 mmHg 88%
    03:00 +9°C° 0 mm 1 mps 654 mmHg 87%
    04:00 +10°C° 0 mm 1 mps 655 mmHg 85%
    05:00 +10°C° 0 mm 1 mps 655 mmHg 84%
    06:00 +11°C° 0 mm 1 mps 655 mmHg 82%
    07:00 +13°C° 0 mm 1 mps 656 mmHg 77%
    08:00 +14°C° 0 mm 1 mps 656 mmHg 73%
    09:00 +16°C° 0 mm 2 mps 657 mmHg 68%
    10:00 +17°C° 0 mm 2 mps 657 mmHg 66%
    11:00 +18°C° 0 mm 2 mps 657 mmHg 64%
    12:00 +19°C° 0 mm 2 mps 657 mmHg 61%
    13:00 +19°C° 0 mm 2 mps 657 mmHg 61%
    14:00 +20°C° 0 mm 2 mps 657 mmHg 61%
    15:00 +20°C° 0 mm 2 mps 657 mmHg 61%
    16:00 +20°C° 0 mm 1 mps 657 mmHg 67%
    17:00 +20°C° 0 mm 1 mps 656 mmHg 72%
    18:00 +19°C° 0 mm 1 mps 656 mmHg 77%
    19:00 +18°C° 0 mm 1 mps 656 mmHg 76%
    20:00 +15°C° 0 mm 1 mps 656 mmHg 74%
    21:00 +14°C° 0 mm 2 mps 655 mmHg 73%
    22:00 +13°C° 0 mm 2 mps 655 mmHg 71%
    23:00 +13°C° 0 mm 2 mps 655 mmHg 70%
    Show more